TimeCST,TemperatureF,Dew PointF,Humidity,Sea Level PressureIn,VisibilityMPH,Wind Direction,Wind SpeedMPH,Gust SpeedMPH,PrecipitationIn,Events,Conditions,WindDirDegrees,DateUTC
12:15 AM,48.2,37.4,66,30.00,10.0,SSE,8.1,-,N/A,,Overcast,150,2012-12-15 06:15:00
12:35 AM,50.0,39.2,66,29.99,10.0,South,9.2,-,N/A,,Light Drizzle,170,2012-12-15 06:35:00
12:55 AM,50.0,41.0,71,29.98,10.0,SSE,9.2,-,N/A,Rain,Rain,160,2012-12-15 06:55:00
1:15 AM,50.0,44.6,82,29.98,10.0,SSE,8.1,-,N/A,,Overcast,160,2012-12-15 07:15:00
1:35 AM,50.0,44.6,82,29.97,10.0,SSE,8.1,-,N/A,,Drizzle,150,2012-12-15 07:35:00
1:55 AM,51.8,44.6,76,29.97,10.0,South,10.4,16.1,N/A,,Light Drizzle,170,2012-12-15 07:55:00
2:15 AM,50.0,46.4,87,29.96,10.0,South,13.8,19.6,N/A,Rain,Light Rain,170,2012-12-15 08:15:00
2:35 AM,48.2,48.2,100,29.98,10.0,South,9.2,17.3,0.05,Rain,Rain,190,2012-12-15 08:35:00
2:55 AM,46.4,46.4,100,29.94,10.0,SSE,12.7,16.1,0.08,Rain,Light Rain,150,2012-12-15 08:55:00
3:15 AM,46.4,46.4,100,29.92,10.0,SE,12.7,18.4,0.02,Rain,Rain,140,2012-12-15 09:15:00
3:35 AM,46.4,46.4,100,29.91,10.0,SE,10.4,17.3,N/A,Rain,Light Rain,140,2012-12-15 09:35:00
3:55 AM,46.4,46.4,100,29.91,10.0,SSE,12.7,-,0.03,Rain,Rain,160,2012-12-15 09:55:00
4:15 AM,46.4,46.4,100,29.89,10.0,SSE,12.7,18.4,N/A,,Light Drizzle,150,2012-12-15 10:15:00
4:35 AM,46.4,46.4,100,29.86,10.0,SE,13.8,18.4,N/A,Rain,Light Rain,140,2012-12-15 10:35:00
4:55 AM,46.4,46.4,100,29.85,10.0,SSE,16.1,-,N/A,,Overcast,150,2012-12-15 10:55:00
5:15 AM,48.2,48.2,100,29.85,10.0,SSE,13.8,19.6,N/A,,Overcast,150,2012-12-15 11:15:00
5:35 AM,48.2,48.2,100,29.89,10.0,South,9.2,-,N/A,Rain,Rain,180,2012-12-15 11:35:00
5:55 AM,48.2,48.2,100,29.86,10.0,SSE,15.0,20.7,0.10,Rain,Light Rain,160,2012-12-15 11:55:00
6:15 AM,48.2,48.2,100,29.84,10.0,SSE,16.1,21.9,0.01,,Overcast,160,2012-12-15 12:15:00
6:35 AM,48.2,48.2,100,29.81,10.0,SSE,17.3,24.2,0.01,Rain,Light Rain,160,2012-12-15 12:35:00
6:55 AM,48.2,48.2,100,29.81,10.0,SSE,18.4,25.3,0.01,,Overcast,160,2012-12-15 12:55:00
7:15 AM,50.0,50.0,100,29.80,10.0,SSE,18.4,29.9,N/A,,Overcast,160,2012-12-15 13:15:00
7:35 AM,50.0,50.0,100,29.80,10.0,South,12.7,27.6,N/A,,Overcast,170,2012-12-15 13:35:00
7:55 AM,51.8,51.8,100,29.79,10.0,SSE,16.1,31.1,N/A,,Overcast,160,2012-12-15 13:55:00
8:15 AM,51.8,51.8,100,29.79,10.0,South,19.6,28.8,N/A,,Overcast,180,2012-12-15 14:15:00
8:35 AM,51.8,51.8,100,29.77,10.0,South,23.0,31.1,N/A,,Overcast,170,2012-12-15 14:35:00
8:55 AM,50.0,50.0,100,29.77,10.0,South,19.6,33.4,N/A,,Overcast,180,2012-12-15 14:55:00
9:15 AM,50.0,50.0,100,29.78,7.0,South,21.9,27.6,N/A,,Overcast,180,2012-12-15 15:15:00
9:35 AM,51.8,51.8,100,29.78,10.0,South,19.6,29.9,N/A,,Overcast,180,2012-12-15 15:35:00
9:55 AM,51.8,51.8,100,29.78,10.0,South,18.4,26.5,N/A,,Overcast,180,2012-12-15 15:55:00
10:15 AM,51.8,51.8,100,29.77,10.0,South,20.7,28.8,N/A,,Overcast,180,2012-12-15 16:15:00
10:35 AM,51.8,51.8,100,29.75,10.0,South,18.4,23.0,N/A,,Overcast,180,2012-12-15 16:35:00
10:55 AM,51.8,51.8,100,29.75,10.0,South,17.3,27.6,N/A,,Overcast,180,2012-12-15 16:55:00
11:15 AM,53.6,53.6,100,29.74,10.0,South,19.6,25.3,N/A,,Overcast,180,2012-12-15 17:15:00
11:35 AM,53.6,53.6,100,29.72,10.0,South,18.4,23.0,N/A,,Overcast,180,2012-12-15 17:35:00
11:55 AM,53.6,53.6,100,29.72,10.0,South,16.1,25.3,N/A,,Overcast,190,2012-12-15 17:55:00
12:15 PM,53.6,53.6,100,29.70,10.0,South,17.3,24.2,N/A,,Overcast,190,2012-12-15 18:15:00
12:35 PM,55.4,55.4,100,29.69,10.0,South,18.4,25.3,N/A,,Overcast,190,2012-12-15 18:35:00
12:55 PM,55.4,55.4,100,29.67,10.0,South,23.0,28.8,N/A,,Overcast,190,2012-12-15 18:55:00
1:15 PM,55.4,55.4,100,29.66,10.0,South,19.6,33.4,N/A,,Overcast,190,2012-12-15 19:15:00
1:35 PM,57.2,55.4,94,29.64,10.0,South,25.3,31.1,N/A,,Mostly Cloudy,190,2012-12-15 19:35:00
1:55 PM,57.2,57.2,100,29.65,10.0,South,18.4,32.2,N/A,,Scattered Clouds,190,2012-12-15 19:55:00
2:15 PM,59.0,55.4,88,29.65,10.0,South,20.7,26.5,N/A,,Scattered Clouds,190,2012-12-15 20:15:00
2:35 PM,59.0,55.4,88,29.66,10.0,South,17.3,26.5,N/A,,Scattered Clouds,190,2012-12-15 20:35:00
2:55 PM,59.0,55.4,88,29.66,10.0,South,12.7,24.2,N/A,,Mostly Cloudy,190,2012-12-15 20:55:00
3:15 PM,59.0,55.4,88,29.67,10.0,South,15.0,24.2,N/A,,Mostly Cloudy,190,2012-12-15 21:15:00
3:35 PM,59.0,55.4,88,29.67,10.0,South,9.2,20.7,N/A,,Overcast,180,2012-12-15 21:35:00
3:55 PM,57.2,55.4,94,29.67,10.0,South,17.3,21.9,N/A,,Overcast,190,2012-12-15 21:55:00
4:15 PM,57.2,55.4,94,29.68,10.0,South,10.4,21.9,N/A,,Scattered Clouds,190,2012-12-15 22:15:00
4:35 PM,57.2,55.4,94,29.68,10.0,South,10.4,-,N/A,,Clear,180,2012-12-15 22:35:00
4:55 PM,55.4,55.4,100,29.69,10.0,South,11.5,18.4,N/A,,Clear,180,2012-12-15 22:55:00
5:15 PM,55.4,55.4,100,29.69,10.0,South,11.5,16.1,N/A,,Clear,180,2012-12-15 23:15:00
5:35 PM,55.4,55.4,100,29.69,10.0,South,11.5,16.1,N/A,,Clear,170,2012-12-15 23:35:00
5:55 PM,55.4,55.4,100,29.70,10.0,South,10.4,-,N/A,,Clear,180,2012-12-15 23:55:00
6:15 PM,55.4,55.4,100,29.70,10.0,South,10.4,-,N/A,,Clear,190,2012-12-16 00:15:00
6:35 PM,55.4,55.4,100,29.71,10.0,South,10.4,-,N/A,,Clear,190,2012-12-16 00:35:00
6:55 PM,55.4,55.4,100,29.71,10.0,South,10.4,-,N/A,,Clear,190,2012-12-16 00:55:00
7:15 PM,55.4,55.4,100,29.72,10.0,South,9.2,-,N/A,,Clear,180,2012-12-16 01:15:00
7:35 PM,55.4,55.4,100,29.72,10.0,South,10.4,-,N/A,,Clear,190,2012-12-16 01:35:00
7:55 PM,55.4,55.4,100,29.73,10.0,South,9.2,-,N/A,,Clear,190,2012-12-16 01:55:00
8:15 PM,55.4,55.4,100,29.73,10.0,South,6.9,-,N/A,,Clear,190,2012-12-16 02:15:00
8:35 PM,55.4,55.4,100,29.73,10.0,South,6.9,-,N/A,,Clear,190,2012-12-16 02:35:00
8:55 PM,55.4,55.4,100,29.73,10.0,South,6.9,-,N/A,,Clear,190,2012-12-16 02:55:00
9:15 PM,55.4,55.4,100,29.74,10.0,SSW,6.9,-,N/A,,Clear,200,2012-12-16 03:15:00
9:35 PM,55.4,55.4,100,29.74,10.0,South,6.9,-,N/A,,Clear,190,2012-12-16 03:35:00
9:55 PM,55.4,55.4,100,29.73,10.0,South,9.2,-,N/A,,Clear,190,2012-12-16 03:55:00
10:15 PM,55.4,55.4,100,29.73,10.0,South,9.2,-,N/A,,Clear,190,2012-12-16 04:15:00
10:35 PM,55.4,55.4,100,29.74,10.0,SSW,6.9,-,N/A,,Clear,200,2012-12-16 04:35:00
10:55 PM,55.4,55.4,100,29.73,10.0,South,8.1,-,N/A,,Clear,190,2012-12-16 04:55:00
11:15 PM,55.4,55.4,100,29.74,10.0,SSW,6.9,-,N/A,,Clear,200,2012-12-16 05:15:00
11:35 PM,53.6,53.6,100,29.74,10.0,SSW,5.8,-,N/A,,Clear,210,2012-12-16 05:35:00
11:55 PM,53.6,53.6,100,29.74,10.0,SSW,5.8,-,N/A,,Clear,200,2012-12-16 05:55:00